This is the latest recevied weather packets stored in our database for station/object YO6KXQ-10. If no packets are shown the sender has not sent any weather packets the latest 1 day(s).
| Time | Temp. | Humidity | Pressure | Rain* | Wind** | Luminosity | Snow |
|---|---|---|---|---|---|---|---|
| 1777820827 | 18.33° C | 39% | 1022.3 hPa | - | - | - | - |
| 1777819807 | 17.78° C | 38% | 1022.4 hPa | - | - | - | - |
| 1777818787 | 17.78° C | 37% | 1022.5 hPa | - | - | - | - |
| 1777817767 | 17.78° C | 36% | 1022.7 hPa | - | - | - | - |
| 1777816746 | 17.22° C | 35% | 1022.9 hPa | - | - | - | - |
| 1777815726 | 17.22° C | 32% | 1023.2 hPa | - | - | - | - |
| 1777814706 | 16.67° C | 38% | 1023.4 hPa | - | - | - | - |
| 1777813686 | 16.67° C | 38% | 1023.7 hPa | - | - | - | - |
| 1777812666 | 16.11° C | 38% | 1023.9 hPa | - | - | - | - |
| 1777811646 | 16.11° C | 39% | 1024 hPa | - | - | - | - |
| 1777810625 | 16.11° C | 39% | 1024.2 hPa | - | - | - | - |
| 1777809605 | 15.56° C | 39% | 1024.4 hPa | - | - | - | - |
| 1777808585 | 15.56° C | 40% | 1024.7 hPa | - | - | - | - |
| 1777807565 | 15.56° C | 40% | 1024.9 hPa | - | - | - | - |
| 1777806545 | 15.56° C | 40% | 1025 hPa | - | - | - | - |
| 1777805525 | 15.56° C | 40% | 1025.2 hPa | - | - | - | - |
| 1777804504 | 15.56° C | 40% | 1025.4 hPa | - | - | - | - |
| 1777803484 | 15.56° C | 40% | 1025.6 hPa | - | - | - | - |
| 1777802464 | 15° C | 40% | 1025.7 hPa | - | - | - | - |
| 1777801444 | 15° C | 41% | 1025.9 hPa | - | - | - | - |
| 1777800424 | 15° C | 40% | 1026 hPa | - | - | - | - |
| 1777799404 | 15° C | 39% | 1026.1 hPa | - | - | - | - |
| 1777798383 | 15° C | 39% | 1026.2 hPa | - | - | - | - |
| 1777797363 | 15° C | 37% | 1026.2 hPa | - | - | - | - |
| 1777796343 | 15° C | 34% | 1026.3 hPa | - | - | - | - |
* Rain since midnight (hover to see other rain measurements)
** Current wind speed in m/s (hover to see current wind gust speed)